Hourly Data Report for July 16, 2021

IQALUIT CLIMATE
NUNAVUT
Current Station Operator: ECCC - MSC

63°44'50.000" N
68°32'40.000" W
33.50 m
2402592
71321
XFB

Download Data

Hourly Data (July 2021)
Hourly Data Report for July 16, 2021
TIME
LST
Temp Definition
°C
Dew Point Definition
°C
Rel Hum Definition
%
Precip. Amount Definition
mm

Wind Dir Definition
10's deg

Wind Spd Definition
km/h
Visibility Definition
km
Stn Press Definition
kPa
Hmdx Definition


Wind Chill Definition


Weather Definition


00:00 7.9 5.0 82 0.0 26 3   100.40     LegendNANA
01:00 7.7 4.9 82 0.0 31 3   100.38     LegendNANA
02:00 7.4 4.7 83 0.0 31 4   100.39     LegendNANA
03:00 7.6 5.0 84 0.0 32 6   100.42     LegendNANA
04:00 8.3 5.8 84 0.0 35 4   100.40     LegendNANA
05:00 10.0 5.8 75 0.0 33 5   100.41     LegendNANA
06:00 11.6 6.2 70 0.0 32 7   100.44     LegendNANA
07:00 14.4 8.1 66 0.0 32 13   100.46     LegendNANA
08:00 16.4 8.3 59 0.0 33 17   100.47     LegendNANA
09:00 17.9 8.8 55 0.0 32 16   100.46     LegendNANA
10:00 19.5 9.9 54 0.0 32 17   100.46     LegendNANA
11:00 20.5 9.4 49 0.0 32 17   100.46     LegendNANA
12:00 22.6 9.5 43 0.0 32 20   100.44     LegendNANA
13:00 23.7 8.9 39 0.0 32 22   100.44     LegendNANA
14:00 24.4 8.8 37 0.0 32 23   100.48 25   LegendNANA
15:00 24.4 8.1 35 0.0 32 25   100.51 25   LegendNANA
16:00 24.2 8.6 37 0.0 32 20   100.56 25   LegendNANA
17:00 23.9 8.6 38 0.0 32 22   100.59 25   LegendNANA
18:00 22.9 8.3 39 0.0 33 28   100.62     LegendNANA
19:00 22.0 8.8 43 0.0 34 20   100.66     LegendNANA
20:00 20.0 9.8 52 0.0 36 21   100.70     LegendNANA
21:00 18.1 9.5 57 0.0 1 17   100.75     LegendNANA
22:00 15.9 8.8 63 0.0 33 13   100.79     LegendNANA
23:00 14.3 8.5 68 0.0 32 18   100.80     LegendNANA

Notes on Data Quality.

Legend

  • E = Estimated
  • M = Missing
  • NA = Not Available*
  • [empty] = Indicates an unobserved value
Date modified: